Regional Weather Roundup
Issued by NWS

Home | Current Version | Previous Version | Text Only | Print | Product List | Glossary Off
Versions: 1 2 3 4 5 6 7 8 9 10 11 12 13 14 15 16 17 18 19 20 21 22 23 24 25 26 27 28 29 30 31 32 33 34 35 36 37 38 39 40 41 42 43 44 45 46 47 48 49 50

000
ASUS43 KLMK 130310
RWRKY
KENTUCKY REGIONAL WEATHER ROUNDUP
NATIONAL WEATHER SERVICE LOUISVILLE KY
1000 PM EST FRI FEB 12 2016

NOTE "FAIR" INDICATES FEW OR NO CLOUDS BELOW 12,000 FEET
WITH NO SIGNIFICANT WEATHER AND/OR OBSTRUCTIONS TO VISIBILITY.

KYZ001>023-026-027-061>063-070>075-130400-
WESTERN AND SOUTH CENTRAL KENTUCKY

CITY           SKY/WX    TMP DP  RH WIND       PRES   REMARKS
PADUCAH        CLEAR     28  17  63 N10       30.42R WCI  19
HENDERSON      CLEAR     25  12  58 NW8       30.41S WCI  16
OWENSBORO      CLOUDY    27  16  63 NW17G24   30.40R WCI  14
HOPKINSVILLE   MOCLDY    31  22  71 NW6       30.37R WCI  25
BOWLING GREEN  CLOUDY    30  19  63 NW13G23   30.36R WCI  20
GLASGOW        CLOUDY    29  17  60 NW13G23   30.33R WCI  19
$$

KYZ024-025-028>034-038-045-046-053-130400-
NORTH CENTRAL KENTUCKY

CITY           SKY/WX    TMP DP  RH WIND       PRES   REMARKS
LOUISVILLE/SDF PTCLDY    27  10  49 NW12G25   30.33R WCI  17
LOUISVILLE/LOU CLOUDY    27  12  53 NW18G25   30.32R WCI  14
FORT KNOX      FLURRIES  26  15  64 NW15G24   30.30R WCI  14
$$

KYZ035>037-039>044-047>052-055>060-089>105-130400-
NORTHEAST KENTUCKY

CITY           SKY/WX    TMP DP  RH WIND       PRES   REMARKS
LEXINGTON      FLURRIES  25  17  72 NW13G21   30.25R WCI  14
COVINGTON      MOCLDY    22   9  57 NW17G23   30.23R WCI   8
FRANKFORT      CLOUDY    26  14  60 NW14G25   30.26R WCI  14
$$

KYZ054-064>069-076>088-106>120-130400-
SOUTHEAST KENTUCKY

CITY           SKY/WX    TMP DP  RH WIND       PRES   REMARKS
JACKSON        CLOUDY    27  13  55 W10G24    30.17R WCI  17
LONDON         CLOUDY    28  16  60 NW14G24   30.22R WCI  17
SOMERSET       CLOUDY    28  18  64 NW13G23   30.28R WCI  18
MIDDLESBORO    FLURRIES  31  24  73 W13G20    30.22R WCI  21
MONTICELLO     FLURRIES  29  22  75 NW20      30.28R WCI  16
$$




USA.gov is the U.S. government's official web portal to all federal, state and local government web resources and services.